Year,Month,Day,Hour,Minute,Value (Times are PST for temperature in C)
2016,12,15,09,21,-1.40
2016,12,15,09,22,-1.40
2016,12,15,09,23,-1.30
2016,12,15,09,24,-1.30
2016,12,15,09,25,-1.20
2016,12,15,09,26,-1.20
2016,12,15,09,27,-1.10
2016,12,15,09,28,-1.10
2016,12,15,09,29,-1.10
2016,12,15,09,30,-1.10
2016,12,15,09,31,-1.10
2016,12,15,09,32,-1.00
2016,12,15,09,33,-0.90
2016,12,15,09,34,-0.90
2016,12,15,09,35,-0.90
2016,12,15,09,36,-0.90
2016,12,15,09,37,-0.90
2016,12,15,09,38,-0.90
2016,12,15,09,39,-0.90
2016,12,15,09,40,-0.90
2016,12,15,09,41,-0.90
2016,12,15,09,42,-0.80
2016,12,15,09,43,-0.80
2016,12,15,09,44,-0.80
2016,12,15,09,45,-0.70
2016,12,15,09,46,-0.70
2016,12,15,09,47,-0.70
2016,12,15,09,48,-0.60
2016,12,15,09,49,-0.60
2016,12,15,09,50,-0.60
2016,12,15,09,51,-0.60
2016,12,15,09,52,-0.60
2016,12,15,09,53,-0.40
2016,12,15,09,54,-0.40
2016,12,15,09,55,-0.40
2016,12,15,09,56,-0.40
2016,12,15,09,57,-0.30
2016,12,15,09,58,-0.30
2016,12,15,09,59,-0.20
2016,12,15,10,00,-0.20
2016,12,15,10,01,-0.20
2016,12,15,10,02,-0.10
2016,12,15,10,03,-0.10
2016,12,15,10,04,-0.10
2016,12,15,10,05,-0.10
2016,12,15,10,06,-0.10
2016,12,15,10,07,0.00
2016,12,15,10,08,0.10
2016,12,15,10,09,0.10
2016,12,15,10,10,0.10
2016,12,15,10,11,0.10
2016,12,15,10,12,0.20
2016,12,15,10,13,0.20
2016,12,15,10,14,0.30
2016,12,15,10,15,0.30
2016,12,15,10,16,0.30
2016,12,15,10,17,0.30
2016,12,15,10,18,0.40
2016,12,15,10,19,0.40
2016,12,15,10,20,0.40
2016,12,15,10,21,0.40
2016,12,15,10,22,0.40
2016,12,15,10,23,0.40
2016,12,15,10,24,0.40
2016,12,15,10,25,0.40
2016,12,15,10,26,0.40
2016,12,15,10,27,0.50
2016,12,15,10,28,0.50
2016,12,15,10,29,0.60
2016,12,15,10,30,0.70
2016,12,15,10,31,0.70
2016,12,15,10,32,0.80
2016,12,15,10,33,0.80
2016,12,15,10,34,0.80
2016,12,15,10,35,0.80
2016,12,15,10,36,0.80
2016,12,15,10,37,0.80
2016,12,15,10,38,0.80
2016,12,15,10,39,0.70
2016,12,15,10,40,0.70
2016,12,15,10,41,0.70
2016,12,15,10,42,0.70
2016,12,15,10,43,0.70
2016,12,15,10,44,0.70
2016,12,15,10,45,0.70
2016,12,15,10,46,0.70
2016,12,15,10,47,0.70
2016,12,15,10,48,0.80
2016,12,15,10,49,0.80
2016,12,15,10,50,0.80
2016,12,15,10,51,0.80
2016,12,15,10,52,0.80
2016,12,15,10,53,0.80
2016,12,15,10,54,0.80
2016,12,15,10,55,0.80
2016,12,15,10,56,0.80
2016,12,15,10,57,0.80
2016,12,15,10,58,0.80
2016,12,15,10,59,0.80
2016,12,15,11,00,0.80
2016,12,15,11,01,0.90
2016,12,15,11,02,1.00
2016,12,15,11,03,1.00
2016,12,15,11,04,1.10
2016,12,15,11,05,1.10
2016,12,15,11,06,1.20
2016,12,15,11,07,1.20
2016,12,15,11,08,1.20
2016,12,15,11,09,1.10
2016,12,15,11,10,1.10
2016,12,15,11,11,1.10
2016,12,15,11,12,1.10
2016,12,15,11,13,1.10
2016,12,15,11,14,1.10
2016,12,15,11,15,1.10
2016,12,15,11,16,1.10
2016,12,15,11,17,1.10
2016,12,15,11,18,1.20
2016,12,15,11,19,1.20
2016,12,15,11,20,1.20
2016,12,15,11,21,1.20
2016,12,15,11,22,1.20
2016,12,15,11,23,1.20
2016,12,15,11,24,1.20
2016,12,15,11,25,1.20
2016,12,15,11,26,1.30
2016,12,15,11,27,1.20
2016,12,15,11,28,1.20
2016,12,15,11,29,1.30
2016,12,15,11,30,1.30
2016,12,15,11,31,1.30
2016,12,15,11,32,1.30
2016,12,15,11,33,1.30
2016,12,15,11,34,1.30
2016,12,15,11,35,1.30
2016,12,15,11,36,1.30
2016,12,15,11,37,1.30
2016,12,15,11,38,1.20
2016,12,15,11,39,1.20
2016,12,15,11,40,1.20
2016,12,15,11,41,1.10
2016,12,15,11,42,1.10
2016,12,15,11,43,1.10
2016,12,15,11,44,1.10
2016,12,15,11,45,1.10
2016,12,15,11,46,1.10
2016,12,15,11,47,1.10
2016,12,15,11,48,1.10
2016,12,15,11,49,1.20
2016,12,15,11,50,1.20
2016,12,15,11,51,1.20
2016,12,15,11,52,1.20
2016,12,15,11,53,1.20
2016,12,15,11,54,1.20
2016,12,15,11,55,1.20
2016,12,15,11,56,1.20
2016,12,15,11,57,1.20
2016,12,15,11,58,1.20
2016,12,15,11,59,1.30
2016,12,15,12,00,1.30
2016,12,15,12,01,1.30
2016,12,15,12,02,1.30
2016,12,15,12,03,1.30
2016,12,15,12,04,1.30
2016,12,15,12,05,1.30
2016,12,15,12,06,1.30
2016,12,15,12,07,1.30
2016,12,15,12,08,1.30
2016,12,15,12,09,1.40
2016,12,15,12,10,1.40
2016,12,15,12,11,1.40
2016,12,15,12,12,1.40
2016,12,15,12,13,1.40
2016,12,15,12,14,1.40
2016,12,15,12,15,1.40
2016,12,15,12,16,1.40
2016,12,15,12,17,1.40
2016,12,15,12,18,1.30
2016,12,15,12,19,1.30
2016,12,15,12,20,1.30
2016,12,15,12,21,1.20
2016,12,15,12,22,1.20
2016,12,15,12,23,1.10
2016,12,15,12,24,1.10
2016,12,15,12,25,1.10
2016,12,15,12,26,1.10
2016,12,15,12,27,1.10
2016,12,15,12,28,1.10
2016,12,15,12,29,1.10
2016,12,15,12,30,1.20
2016,12,15,12,31,1.20
2016,12,15,12,32,1.20
2016,12,15,12,33,1.30
2016,12,15,12,34,1.30
2016,12,15,12,35,1.30
2016,12,15,12,36,1.30
2016,12,15,12,37,1.30
2016,12,15,12,38,1.30
2016,12,15,12,39,1.40
2016,12,15,12,40,1.40
2016,12,15,12,41,1.40
2016,12,15,12,42,1.40
2016,12,15,12,43,1.40
2016,12,15,12,44,1.40
2016,12,15,12,45,1.40
2016,12,15,12,46,1.40
2016,12,15,12,47,1.40
2016,12,15,12,48,1.40
2016,12,15,12,49,1.50
2016,12,15,12,50,1.50
2016,12,15,12,51,1.50
2016,12,15,12,52,1.50
2016,12,15,12,53,1.50
2016,12,15,12,54,1.50
2016,12,15,12,55,1.50
2016,12,15,12,56,1.50
2016,12,15,12,57,1.50
2016,12,15,12,58,1.50
2016,12,15,12,59,1.50
2016,12,15,13,00,1.50
2016,12,15,13,01,1.50
2016,12,15,13,02,1.50
2016,12,15,13,03,1.40
2016,12,15,13,04,1.50
2016,12,15,13,05,1.50
2016,12,15,13,06,1.50
2016,12,15,13,07,1.50
2016,12,15,13,08,1.50
2016,12,15,13,09,1.50
2016,12,15,13,10,1.50
2016,12,15,13,11,1.50
2016,12,15,13,12,1.50
2016,12,15,13,13,1.50
2016,12,15,13,14,1.50
2016,12,15,13,15,1.50
2016,12,15,13,16,1.50
2016,12,15,13,17,1.50
2016,12,15,13,18,1.50
2016,12,15,13,19,1.50
2016,12,15,13,20,1.50
2016,12,15,13,21,1.50
2016,12,15,13,22,1.50
2016,12,15,13,23,1.50
2016,12,15,13,24,1.50
2016,12,15,13,25,1.50
2016,12,15,13,26,1.60
2016,12,15,13,27,1.60
2016,12,15,13,28,1.70
2016,12,15,13,29,1.70
2016,12,15,13,30,1.80
2016,12,15,13,31,1.80
2016,12,15,13,32,1.80
2016,12,15,13,33,1.80
2016,12,15,13,34,1.70
2016,12,15,13,35,1.70
2016,12,15,13,36,1.80
2016,12,15,13,37,1.80
2016,12,15,13,38,1.80
2016,12,15,13,39,1.80
2016,12,15,13,40,1.80
2016,12,15,13,41,1.80
2016,12,15,13,42,1.80
2016,12,15,13,43,1.80
2016,12,15,13,44,1.80
2016,12,15,13,45,1.80
2016,12,15,13,46,1.80
2016,12,15,13,47,1.80
2016,12,15,13,48,1.80
2016,12,15,13,49,1.80
2016,12,15,13,50,1.90
2016,12,15,13,51,1.90
2016,12,15,13,52,1.90
2016,12,15,13,53,1.90
2016,12,15,13,54,1.90
2016,12,15,13,55,2.00
2016,12,15,13,56,1.90
2016,12,15,13,57,1.90
2016,12,15,13,58,1.90
2016,12,15,13,59,1.80
2016,12,15,14,00,1.80
2016,12,15,14,01,1.80
2016,12,15,14,02,1.80
2016,12,15,14,03,1.80
2016,12,15,14,04,1.80
2016,12,15,14,05,1.80
2016,12,15,14,06,1.80
2016,12,15,14,07,1.70
2016,12,15,14,08,1.70
2016,12,15,14,09,1.70
2016,12,15,14,10,1.70
2016,12,15,14,11,1.70
2016,12,15,14,12,1.70
2016,12,15,14,13,1.70
2016,12,15,14,14,1.70
2016,12,15,14,15,1.70
2016,12,15,14,16,1.70
2016,12,15,14,17,1.60
2016,12,15,14,18,1.60
2016,12,15,14,19,1.60
2016,12,15,14,20,1.60
2016,12,15,14,21,1.70
2016,12,15,14,22,1.70
2016,12,15,14,23,1.70
2016,12,15,14,24,1.70
2016,12,15,14,25,1.80
2016,12,15,14,26,1.80
2016,12,15,14,27,1.80
2016,12,15,14,28,1.80
2016,12,15,14,29,1.80
2016,12,15,14,30,1.80
2016,12,15,14,31,1.80
2016,12,15,14,32,1.80
2016,12,15,14,33,1.80
2016,12,15,14,34,1.80
2016,12,15,14,35,1.80
2016,12,15,14,36,1.90
2016,12,15,14,37,1.90
2016,12,15,14,38,1.90
2016,12,15,14,39,1.90
2016,12,15,14,40,1.90
2016,12,15,14,41,1.80
2016,12,15,14,42,1.80
2016,12,15,14,43,1.80
2016,12,15,14,44,1.70
2016,12,15,14,45,1.70
2016,12,15,14,46,1.70
2016,12,15,14,47,1.60
2016,12,15,14,48,1.60
2016,12,15,14,49,1.60
2016,12,15,14,50,1.60
2016,12,15,14,51,1.60
2016,12,15,14,52,1.50
2016,12,15,14,53,1.50
2016,12,15,14,54,1.50
2016,12,15,14,55,1.50
2016,12,15,14,56,1.50
2016,12,15,14,57,1.40
2016,12,15,14,58,1.40
2016,12,15,14,59,1.40
2016,12,15,15,00,1.40
2016,12,15,15,01,1.40
2016,12,15,15,02,1.40
2016,12,15,15,03,1.30
2016,12,15,15,04,1.30
2016,12,15,15,05,1.30
2016,12,15,15,06,1.30
2016,12,15,15,07,1.30
2016,12,15,15,08,1.30
2016,12,15,15,09,1.30
2016,12,15,15,10,1.30
2016,12,15,15,11,1.30
2016,12,15,15,12,1.30
2016,12,15,15,13,1.30
2016,12,15,15,14,1.40
2016,12,15,15,15,1.40
2016,12,15,15,16,1.40
2016,12,15,15,17,1.40
2016,12,15,15,18,1.40
2016,12,15,15,19,1.40
2016,12,15,15,20,1.40
2016,12,15,15,21,1.50
2016,12,15,15,22,1.50
2016,12,15,15,23,1.50
2016,12,15,15,24,1.50
2016,12,15,15,25,1.50
2016,12,15,15,26,1.50
2016,12,15,15,27,1.50
2016,12,15,15,28,1.50
2016,12,15,15,29,1.50
2016,12,15,15,30,1.50
2016,12,15,15,31,1.50
2016,12,15,15,32,1.50
2016,12,15,15,33,1.50
2016,12,15,15,34,1.50
2016,12,15,15,35,1.50
2016,12,15,15,36,1.50
2016,12,15,15,37,1.50
2016,12,15,15,38,1.50
2016,12,15,15,39,1.40
2016,12,15,15,40,1.40
2016,12,15,15,41,1.30
2016,12,15,15,42,1.30
2016,12,15,15,43,1.30
2016,12,15,15,44,1.30
2016,12,15,15,45,1.30
2016,12,15,15,46,1.30
2016,12,15,15,47,1.30
2016,12,15,15,48,1.30
2016,12,15,15,49,1.30
2016,12,15,15,50,1.30
2016,12,15,15,51,1.20
2016,12,15,15,52,1.20
2016,12,15,15,53,1.20
2016,12,15,15,54,1.20
2016,12,15,15,55,1.20
2016,12,15,15,56,1.20
2016,12,15,15,57,1.10
2016,12,15,15,58,1.10
2016,12,15,15,59,1.10
2016,12,15,16,00,1.10
2016,12,15,16,01,1.10
2016,12,15,16,02,1.10
2016,12,15,16,03,1.10
2016,12,15,16,04,1.10
2016,12,15,16,05,1.10
2016,12,15,16,06,1.00
2016,12,15,16,07,1.00
2016,12,15,16,08,1.00
2016,12,15,16,09,1.00
2016,12,15,16,10,1.00
2016,12,15,16,11,1.00
2016,12,15,16,12,1.00
2016,12,15,16,13,1.00
2016,12,15,16,14,1.00
2016,12,15,16,15,1.00
2016,12,15,16,16,1.00
2016,12,15,16,17,1.00
2016,12,15,16,18,1.00
2016,12,15,16,19,1.00
2016,12,15,16,20,1.00
